Location: Haieshausen
(51.8387°N, 9.9720°E)
Time: 03:21:31
(UTC+00:00)

Cosmos 1733 Rocket - Pass Details

Date: 14 July 2020
Orbit: 604 x 627 km, 82.5° (Epoch: 10 August)

Event Time Altitude Azimuth Distance (km) Brightness Sun altitude
Exits shadow 01:29:33 10° 170° (S) 1,960 5.2 -11.7°
Reaches altitude 10° 01:29:35 10° 169° (S) 1,950 5.2 -11.7°
Maximum altitude 01:33:45 50° 95° (E) 773 3.7 -11.4°
Drops below altitude 10° 01:37:57 10° 20° (NNE) 1,966 7.1 -11.1°
Sets 01:40:13 0° 15° (NNE) 2,876 8.1 -10.9°
